This is the latest recevied weather packets stored in our database for station/object KC9DNQ-3. If no packets are shown the sender has not sent any weather packets the latest 10 day(s).
| Time | Temp. | Humidity | Pressure | Rain* | Wind** | Luminosity | Snow |
|---|---|---|---|---|---|---|---|
| 1777378809 | 10.56° C | 81% | 1010.9 hPa | 0 mm | - | 21 W/m² | - |
| 1777378509 | 10.56° C | 80% | 1010.9 hPa | 0 mm | - | 19 W/m² | - |
| 1777378219 | 10.56° C | 80% | 1010.9 hPa | 0 mm | - | 18 W/m² | - |
| 1777377908 | 10.56° C | 80% | 1010.5 hPa | 0 mm | - | 16 W/m² | - |
| 1777377608 | 11.11° C | 80% | 1010.5 hPa | 0 mm | - | 16 W/m² | - |
| 1777377308 | 11.11° C | 80% | 1010.5 hPa | 0 mm | - | 18 W/m² | - |
| 1777377008 | 11.11° C | 80% | 1010.3 hPa | 0 mm | - | 12 W/m² | - |
| 1777376708 | 11.11° C | 80% | 1010.3 hPa | 0 mm | - | 9 W/m² | - |
| 1777376408 | 11.11° C | 80% | 1009.7 hPa | 0 mm | - | 7 W/m² | - |
| 1777376108 | 11.11° C | 80% | 1009.7 hPa | 0 mm | - | 5 W/m² | - |
| 1777375808 | 11.11° C | 80% | 1009.7 hPa | 0 mm | - | 5 W/m² | - |
| 1777375508 | 11.11° C | 79% | 1009.7 hPa | 0 mm | - | 5 W/m² | - |
| 1777375209 | 11.11° C | 79% | 1009.4 hPa | 0 mm | - | 0 W/m² | - |
| 1777374908 | 11.11° C | 80% | 1009.4 hPa | 0 mm | - | 5 W/m² | - |
| 1777374608 | 11.11° C | 80% | 1009.2 hPa | 0 mm | - | 0 W/m² | - |
| 1777374308 | 11.11° C | 81% | 1008.9 hPa | 0 mm | - | 0 W/m² | - |
| 1777374008 | 11.11° C | 81% | 1008.9 hPa | 0 mm | - | 0 W/m² | - |
| 1777373708 | 11.11° C | 80% | 1008.7 hPa | 0 mm | - | 0 W/m² | - |
| 1777373409 | 11.67° C | 80% | 1008.7 hPa | 0 mm | - | 0 W/m² | - |
| 1777373108 | 11.67° C | 80% | 1008.5 hPa | 0 mm | - | 0 W/m² | - |
| 1777372809 | 11.67° C | 80% | 1008.5 hPa | 0 mm | - | 0 W/m² | - |
| 1777372509 | 11.67° C | 80% | 1008.5 hPa | 0 mm | - | 0 W/m² | - |
| 1777372208 | 11.67° C | 80% | 1008.5 hPa | 0 mm | - | 0 W/m² | - |
| 1777371909 | 11.67° C | 79% | 1008.5 hPa | 0 mm | - | 0 W/m² | - |
| 1777371608 | 11.67° C | 79% | 1008.5 hPa | 0 mm | - | 0 W/m² | - |
* Rain latest hour (hover to see other rain measurements)
** Current wind speed in m/s (hover to see current wind gust speed)